Flag for Venezuela Weather past 2 weeks in Barquisimeto, Venezuela

Now
75 °F

Passing clouds.


Feels Like: 75 °F
Forecast: 64 / 95 °F
Wind: 14 mph from Southeast

Location: Barquisimeto Airport

Current Time: Aug 21, 2014 at 10:13:25 PM

Latest Report: Aug 21, 2014 at 9:30 PM


Visibility: N/A

Pressure: 29.98 "Hg

Humidity: 83%

Dew point: 70 °F

Location of BarquisimetoLocation

Historic Weather in Barquisimeto — Graph

°F

Barquisimeto temperature yesterday

Maximum temperature yesterday: 86 °F (at 2:30 PM)
Minimum temperature yesterday: 70 °F (at 4:30 AM)
Average temperature yesterday: 78 °F

Past Weeks' High & Low Weather Summary

 TemperatureHumidityPressure
High90 °F (Aug 11, 3:30 PM)100% (Aug 7, 9:30 PM)30.09 "Hg (Aug 7, 9:30 PM)
Low66 °F (Aug 18, 5:30 AM)43% (Aug 11, 3:30 PM)29.89 "Hg (Aug 16, 9:30 PM)
Average77 °F76%30.03 "Hg
* Reported Aug 6 8:30 PM — Aug 21 8:30 PM, Barquisimeto, Weather by CustomWeather, © 2014

Note: Actual official high and low records may vary slightly from our data, if they occured in-between our weather recording intervals... More about our weather records

Advertising

Barquisimeto weather history for previous 24 hours

 ConditionsComfort  
Time TempWeatherWind HumidityBarometerVisibility
8:30 PM
Aug 21
75 °FPassing clouds.17 mph83%29.95 "HgN/A
7:30 PM77 °FPassing clouds.15 mph79%29.92 "HgN/A
6:30 PM79 °FPassing clouds.16 mph70%29.92 "HgN/A
5:30 PM84 °FScattered clouds.18 mph58%29.92 "HgN/A
4:30 PM88 °FScattered clouds.15 mph52%29.92 "HgN/A
3:30 PM88 °FScattered clouds.16 mph49%29.95 "HgN/A
2:30 PM88 °FScattered clouds.17 mph49%29.95 "HgN/A
1:30 PM86 °FScattered clouds.6 mph52%29.98 "HgN/A
12:30 PM86 °FScattered clouds.15 mph52%30.01 "HgN/A
11:30 AM84 °FPartly sunny.17 mph55%30.04 "HgN/A
10:30 AM81 °FPartly sunny.12 mph66%30.07 "HgN/A
9:30 AM77 °FPartly sunny.8 mph74%30.07 "HgN/A
8:30 AM73 °FPartly sunny.10 mph89%30.01 "HgN/A
7:30 AM72 °FFog.10 mph94%30.04 "Hg2 mi
6:30 AM72 °FFog.9 mph88%30.01 "Hg1 mi
5:30 AM72 °FFog.10 mph88%30.01 "Hg1 mi
4:30 AM72 °FOvercast.12 mph88%30.01 "HgN/A
1:30 AM72 °FPassing clouds.9 mph88%29.92 "HgN/A
10:30 PM
Aug 20
72 °FPassing clouds.10 mph94%30.07 "HgN/A
Weather by CustomWeather, © 2014

See weather overviewHow to use our weather pages